CAPE
163 533 793 947 959 827 528 554 683 831 813 656 653 745 722 597 721 908 857 985 940 1048 1052 1103 1233 1317 1248 1322 1229 1271 1194 1292 1492 1327 1461 1330 1495 1358 1393 1347 1267 1133 1714
140 503 536 908 1015 1035 859 582 569 676 879 633 595 598 584 638 562 779 814 944 793 835 752 804 1005 1030 1103 1293 1398 1336 1470 1280 1508 1357 1206 1218 1527 1392 1442 1341 1194 1158 1613
283 531 657 761 962 1058 979 723 596 547 754 589 471 509 589 712 822 782 944 803 756 737 702 678 656 462 361 310 374 698 939 1035 1207 1192 1008 835 748 1489 1516 1290 1505 1514 1307
165 518 478 493 799 814 750 806 789 704 632 466 379 344 494 701 778 641 497 333 311 301 260 257 258 268 342 432 509 337 243 356 587 660 574 509 587 1293 1699 1358 1509 1563 1422
4 136 714 668 554 608 659 649 604 508 443 451 574 728 788 646 531 493 455 396 376 363 306 270 291 370 389 341 289 292 246 234 314 461 723 783 591 792 959 1039 1326 1553 1489
0 0 445 972 1004 813 810 848 719 648 591 568 554 615 537 541 509 378 295 247 253 277 387 567 772 834 728 491 403 293 285 301 318 362 549 599 743 455 791 1178 983 901 1227
0 0 47 1114 554 969 1065 807 882 833 763 656 674 691 702 823 776 685 878 1029 1004 859 711 658 573 551 608 715 923 1208 1315 764 312 287 301 318 394 244 589 900 1354 1257 1412
0 0 0 924 385 647 775 933 922 985 979 929 979 1047 1008 923 935 783 786 720 625 590 525 482 561 682 785 925 1063 1203 1390 1486 619 444 423 402 412 293 475 776 680 933 1249
0 0 0 410 747 910 709 750 948 968 947 970 955 948 947 861 763 615 490 339 321 419 507 684 854 1044 1166 1249 1244 1310 1318 1514 1110 863 796 444 571 418 676 609 402 579 1043
0 0 0 440 316 628 859 708 521 530 992 1018 912 736 575 479 346 257 279 297 419 482 642 967 1179 1245 1207 1164 1417 1582 1698 1697 1643 1314 1060 900 635 322 556 483 328 311 423
0 0 0 188 557 714 788 653 762 881 1052 966 688 524 275 122 245 350 332 393 909 1359 1464 1375 1429 1687 1675 1513 1411 1525 1740 1832 1347 783 719 758 487 331 508 363 293 283 243
0 0 0 238 304 684 535 677 767 609 370 353 161 187 194 516 849 731 933 1047 1282 1295 1534 1222 1445 1539 1735 1351 1511 1385 1266 1140 635 626 465 311 448 520 598 541 509 306 184
0 0 0 197 410 515 541 560 432 361 225 118 67 166 444 585 813 974 1152 1435 1788 1575 1751 1726 1903 1659 1655 1539 1682 1531 1367 1154 809 361 248 119 84 272 568 910 357 170 69
0 0 0 38 209 405 435 450 235 143 62 0 30 271 534 742 840 1004 1197 1162 1224 1543 1685 1715 1893 2000 1997 1971 1945 1642 1510 1245 1012 811 586 209 112 68 90 774 543 358 172
0 0 0 36 31 89 127 206 96 0 0 0 0 86 270 575 953 1523 1354 935 1180 1551 1878 1727 1791 1685 1862 2051 1960 1694 1489 1421 1246 969 832 509 402 420 457 617 993 662 398
0 0 0 0 0 22 19 44 30 174 68 0 47 202 432 829 1248 1487 1545 1660 1465 1519 1244 1254 1379 1294 1189 1860 1763 1775 1655 1374 1198 1261 1133 904 429 459 489 804 1266 1000 375
12 0 0 0 18 0 17 80 155 322 434 499 423 458 711 924 1085 1500 1660 1465 1409 515 652 273 1086 1236 1235 1783 1739 1417 1292 1364 986 1127 1303 1291 1180 795 625 761 1221 1033 424
138 19 2 0 27 32 123 222 235 352 759 1158 1111 1159 1138 1215 1528 1613 1759 1790 1336 293 346 1088 1122 943 1454 1692 1519 1362 1545 1406 1207 1327 1574 1527 1417 1126 649 280 107 3 1
149 87 36 44 138 159 214 335 387 615 1491 1488 1428 1035 819 1069 1349 1608 1923 2076 1318 837 1054 1609 1706 1193 1484 1677 1342 1451 1540 1389 1402 1192 1464 1540 1215 674 68 0 0 0 0
78 109 90 72 140 356 398 463 619 1004 1333 1419 1524 1804 1770 1654 1308 1470 1951 1670 1600 1484 1665 1585 1554 1689 1846 1537 1538 770 1106 1041 1132 1160 1330 1298 594 17 0 0 0 19 0
0 6 36 58 99 392 478 660 851 1039 1097 1075 1473 1618 1288 1729 1702 1536 1598 1523 1646 1555 1883 1875 1676 1325 1128 1838 1183 619 858 732 690 966 1321 1173 482 0 0 0 2 2 0
0 0 7 13 139 320 603 826 1013 949 802 840 1321 1435 1696 1800 1927 1578 1502 1527 1400 1355 1598 1276 1174 1347 1739 1753 850 841 642 568 661 1048 995 721 538 185 12 0 3 7 2
5 39 36 58 113 353 597 838 833 834 801 943 1282 1455 1486 1599 1774 1810 1515 1429 1497 1493 1555 1343 1548 1334 1426 1672 1166 674 756 415 846 1148 759 445 420 17 0 0 5 9 12
22 60 63 143 176 373 620 694 658 430 327 534 1174 1441 1589 1554 1664 1649 1709 1771 1549 1665 1587 1513 1978 1566 1850 1361 1721 1484 1518 1557 928 1043 1004 229 0 0 0 2 8 10 4
40 55 61 133 209 332 413 474 485 412 861 900 1138 1211 1559 1586 1759 1586 1925 1704 1653 1649 1546 1589 1582 1561 2098 1928 1606 1639 2060 1877 1204 1003 787 777 148 2 1 3 7 5 0
39 74 80 81 149 341 372 405 301 273 777 956 921 955 1111 1536 1422 1337 1756 1767 1694 1712 1740 1836 1862 2190 1865 1806 1600 1867 1982 1565 1329 1334 1004 551 230 3 3 2 7 0 0
CIN
-17 0 0 0 0 0 -6 -8 -5 -1 0 0 0 0 0 -5 -2 -2 -6 -4 -12 -9 -1 0 0 0 0 0 0 0 -1 -1 0 0 0 0 0 -2 0 -1 -4 -1 0
-37 0 -1 0 0 0 0 -7 -8 -4 0 -1 -1 -2 -11 -8 -10 -4 -7 -3 -11 -6 -9 -1 0 0 0 0 0 0 0 0 0 0 0 0 0 0 0 -2 -6 -1 0
-19 0 0 0 0 0 0 -2 -4 -4 0 -2 -7 -11 -8 -2 0 -7 -3 -7 -15 -18 -20 -20 -14 -14 -24 -36 -38 -11 -1 -2 0 -2 -5 0 -1 0 0 -2 0 0 0
-36 -1 -1 -3 0 0 0 0 0 -1 -1 -4 -17 -24 -10 -2 -2 -9 -18 -43 -46 -51 -52 -49 -49 -50 -42 -48 -25 -34 -42 -35 -18 -11 -6 -9 -1 0 0 0 0 0 0
-9 -31 0 -1 -4 0 0 0 -1 -4 -9 -12 -13 -1 -2 -7 -11 -14 -20 -22 -35 -33 -47 -54 -43 -29 -34 -35 -38 -37 -43 -48 -30 -12 -2 -6 -10 -3 -2 -5 0 0 -1
0 0 -12 0 0 0 0 0 0 -1 -4 -10 -12 -7 -18 -18 -20 -26 -33 -45 -40 -32 -18 -4 -1 -1 -3 -23 -29 -49 -61 -64 -47 -7 -13 -13 -6 -22 -9 -2 -3 0 0
0 0 -34 -1 -3 -2 -2 0 0 0 0 -2 -3 -4 -10 -6 -10 -15 -3 0 0 0 -1 -3 -3 -11 -17 -13 0 0 0 -13 -47 -41 -35 -35 -26 -62 -29 -12 0 -1 0
0 0 0 -2 -20 -5 -3 0 0 0 0 0 0 0 0 0 -2 -9 -7 -3 -5 -7 -20 -24 -21 -15 -14 -8 -4 -3 0 0 -2 -22 -30 -25 -26 -56 -43 -32 -24 -5 -1
0 0 0 -20 -7 -2 -2 -1 0 0 0 0 0 0 -1 -5 -4 -11 -23 -38 -45 -37 -36 -26 -17 -7 -9 -7 -11 -12 -12 -1 0 -1 -5 -17 -31 -48 -35 -19 -32 -23 -3
0 0 0 -32 -41 -13 0 -3 -7 -6 0 0 0 -7 -28 -40 -48 -65 -63 -58 -49 -45 -40 -25 -14 -14 -21 -25 -17 -5 0 -2 0 -1 -7 -19 -49 -67 -45 -28 -38 -43 -29
0 0 0 -69 -36 -22 -11 -12 -6 -3 0 -2 -20 -30 -48 -66 -53 -58 -60 -70 -39 -17 -15 -22 -19 -16 -20 -31 -33 -26 -12 -10 -26 -48 -53 -67 -83 -90 -49 -21 -19 -18 -22
0 0 0 -82 -64 -28 -33 -21 -12 -21 -33 -38 -73 -69 -69 -49 -28 -39 -37 -42 -35 -22 -21 -22 -29 -27 -26 -19 -12 -26 -20 -32 -69 -78 -105 -133 -102 -78 -54 -25 -9 -22 -30
0 0 0 -105 -69 -49 -43 -33 -42 -43 -63 -100 -106 -89 -60 -52 -40 -34 -31 -23 -22 -30 -20 -18 -19 -18 -22 -18 -19 -29 -38 -57 -82 -107 -164 -181 -186 -122 -72 -29 -27 -32 -111
0 0 0 -169 -115 -86 -67 -60 -84 -105 -145 0 -152 -76 -61 -41 -44 -43 -35 -45 -51 -35 -33 -29 -27 -32 -30 -31 -35 -56 -52 -80 -106 -106 -113 -191 -192 -175 -142 -61 -35 -17 -22
0 0 0 -218 -239 -175 -139 -105 -143 -21 0 0 0 -102 -73 -53 -38 -29 -40 -59 -55 -44 -30 -37 -39 -37 -37 -34 -37 -49 -39 -45 -58 -83 -81 -144 -162 -148 -125 -75 -32 -17 -9
0 0 0 0 0 -279 -260 -188 -222 -110 -155 0 -167 -78 -69 -54 -41 -31 -32 -27 -34 -39 -49 -59 -48 -42 -47 -39 -29 -29 -36 -35 -37 -50 -42 -64 -157 -146 -127 -66 -18 -7 -6
-238 0 0 0 -317 0 -270 -174 -126 -88 -65 -59 -59 -75 -68 -57 -54 -44 -32 -28 -32 -82 -94 -108 -64 -49 -36 -25 -25 -23 -28 -34 -34 -38 -40 -36 -55 -106 -101 -63 -21 -4 -4
-197 -291 -63 -19 -280 -253 -162 -126 -106 -73 -51 -36 -40 -48 -49 -52 -48 -41 -30 -22 -43 -91 -86 -49 -42 -35 -21 -11 -15 -17 -22 -31 -36 -34 -26 -28 -33 -45 -74 -99 -117 -123 -43
-213 -243 -265 -252 -149 -130 -118 -98 -76 -58 -33 -23 -35 -54 -58 -52 -50 -46 -28 -27 -46 -55 -43 -38 -27 -40 -18 -10 -11 -14 -16 -14 -21 -23 -24 -17 -31 -62 -52 0 0 0 0
-252 -233 -235 -231 -159 -105 -96 -105 -73 -44 -37 -31 -30 -30 -40 -44 -50 -42 -23 -31 -41 -35 -26 -33 -40 -28 -19 -13 -14 -30 -28 -35 -35 -29 -15 -23 -73 -142 0 0 0 -109 0
0 -328 -301 -264 -193 -121 -108 -83 -60 -53 -40 -39 -33 -35 -59 -42 -50 -46 -36 -34 -37 -38 -30 -34 -22 -17 -11 -15 -17 -30 -43 -55 -42 -11 -28 -19 -77 0 0 0 -17 -1 0
-43 0 -315 -299 -187 -138 -97 -79 -59 -57 -52 -39 -37 -38 -43 -42 -45 -46 -35 -30 -38 -36 -16 -18 -13 -16 -13 -27 -13 -10 -22 -49 -34 -11 -28 -50 -74 -126 -82 0 0 0 0
-255 -305 -284 -265 -207 -147 -113 -109 -99 -86 -75 -49 -31 -22 -30 -46 -35 -34 -37 -38 -40 -46 -25 -23 -18 -16 -12 -19 -19 -12 -1 -33 -30 -20 -54 -86 -75 -178 0 0 0 0 0
-333 -320 -297 -238 -221 -181 -154 -131 -127 -109 -81 -50 -29 -25 -25 -50 -45 -47 -44 -52 -43 -37 -34 -58 -37 -14 -33 -13 -6 -15 -7 0 0 -5 -17 -142 0 0 0 0 0 -74 0
-316 -315 -304 -267 -243 -196 -193 -161 -136 -115 -55 -45 -47 -44 -37 -42 -43 -41 -42 -59 -45 -41 -42 -35 -27 -12 -19 -22 -11 -7 0 0 0 0 -23 -15 -108 0 0 0 0 0 0
-357 -326 -305 -300 -239 -223 -215 -197 -187 -149 -70 -62 -59 -55 -41 -32 -42 -52 -43 -54 -54 -42 -50 -51 -45 -18 -22 -29 -22 -17 -1 0 0 0 -2 -20 -33 0 0 0 0 0 0
Wind_Speed
24 25 27 29 29 30 30 30 30 31 32 32 31 29 27 25 24 23 22 21 19 17 18 20 23 25 26 27 26 25 24 23 24 24 22 21 20 20 20 18 15 13 11
28 27 28 29 30 30 29 30 30 30 29 29 28 26 24 22 21 19 19 19 19 19 18 19 20 20 20 20 22 24 23 23 23 22 20 20 20 19 19 18 18 13 12
28 28 28 30 30 30 29 30 29 28 27 26 25 24 23 20 20 19 19 18 17 17 17 17 17 17 16 15 13 11 10 10 19 20 18 18 18 17 18 18 17 15 13
28 28 27 30 30 29 29 29 28 28 26 26 24 23 21 19 19 19 18 16 16 15 14 13 13 12 13 13 13 11 11 11 14 17 14 5 5 16 16 15 15 15 14
28 27 28 29 29 28 28 28 27 26 26 25 23 22 20 18 17 17 16 15 15 14 13 13 12 12 12 12 12 13 12 13 14 15 15 16 16 14 15 14 13 13 15
27 28 28 28 28 28 27 26 26 25 25 23 22 20 18 17 16 16 16 15 14 14 13 12 12 11 11 11 12 11 12 12 13 14 15 13 16 15 14 11 11 11 13
27 28 27 26 27 26 26 25 25 24 23 22 21 19 18 17 16 16 15 14 14 13 13 12 12 11 11 10 10 10 11 11 12 12 13 14 12 12 13 10 9 11 11
28 27 26 25 26 25 25 24 24 23 22 21 20 19 18 17 16 15 14 14 13 12 12 11 11 10 10 10 9 9 10 10 10 10 12 9 8 9 10 10 8 8 7
27 26 26 25 25 25 24 23 22 22 21 20 19 18 17 16 15 15 14 13 12 11 10 10 10 10 9 8 8 8 8 8 8 8 10 8 8 6 9 10 8 9 8
26 26 25 24 24 24 23 23 22 21 20 19 19 18 17 15 15 14 13 13 11 10 10 10 9 9 9 8 9 8 7 6 8 8 8 8 8 10 9 8 6 6 4
26 25 25 24 24 24 23 22 21 21 20 19 18 17 16 15 14 14 13 12 12 11 10 9 9 8 8 8 8 7 5 6 6 7 7 6 5 6 7 6 5 3 1
25 25 25 25 24 23 22 21 21 20 19 19 18 17 16 15 14 13 13 12 11 10 9 9 8 8 8 8 8 6 7 6 6 6 6 5 5 8 7 8 5 1 3
25 25 25 25 24 23 23 21 21 20 19 19 18 17 16 15 13 13 12 11 10 10 9 8 7 7 7 7 6 6 5 5 5 4 4 4 4 5 4 7 4 4 2
25 25 25 25 24 24 22 22 20 20 19 19 18 17 15 14 14 14 12 11 10 9 8 8 7 7 7 6 6 5 5 6 6 4 4 2 2 2 2 2 1 4 3
25 25 25 25 25 24 23 22 21 20 19 19 18 17 15 14 14 14 12 11 10 9 9 8 7 8 6 6 5 5 4 4 5 6 6 4 1 2 2 1 2 2 2
25 25 24 26 25 25 24 23 21 20 19 19 19 17 16 15 15 14 12 11 10 9 9 8 7 7 5 6 5 4 3 3 3 2 2 3 4 2 4 4 3 2 3
25 25 24 25 25 25 23 22 21 20 20 19 18 17 16 16 16 14 13 11 10 10 10 8 7 7 5 5 3 3 5 4 3 4 4 6 11 13 13 13 10 14 9
25 25 24 24 24 23 23 21 20 19 19 18 18 16 16 15 16 15 14 11 10 10 9 9 8 7 5 3 2 2 0 2 2 4 6 8 12 14 16 18 18 20 21
26 24 23 24 23 22 21 20 20 19 19 18 18 17 15 15 16 16 14 12 10 10 10 9 9 8 6 11 6 4 4 3 3 8 11 15 17 17 17 18 23 26 28
25 23 21 22 22 21 20 19 18 18 19 19 18 17 16 16 15 15 14 12 11 10 9 9 8 5 5 9 9 10 6 3 7 14 16 17 18 17 18 21 24 25 26
23 22 21 18 19 17 17 18 17 16 15 18 20 20 13 15 15 15 15 13 11 10 9 11 11 4 12 3 7 12 3 9 12 15 18 19 18 18 19 21 23 24 23
24 20 19 19 15 15 13 13 13 13 13 13 14 18 10 13 14 13 14 14 10 9 8 12 14 9 13 9 9 1 7 15 15 16 21 21 20 19 19 22 22 22 21
22 20 17 15 14 12 11 9 8 7 9 10 10 11 19 18 18 13 13 12 10 8 6 6 7 17 18 15 2 9 11 12 5 21 23 24 22 21 22 22 21 21 21
21 14 11 10 10 8 8 8 12 14 15 15 13 15 20 19 19 15 12 10 9 8 6 6 7 22 12 19 11 17 14 13 15 13 22 23 24 23 22 22 21 21 22
9 6 5 6 8 7 9 12 16 20 19 20 19 19 20 21 10 22 17 9 6 7 5 3 4 17 22 20 17 27 21 17 14 14 15 20 23 23 22 21 20 21 21
2 2 9 12 14 12 12 15 16 18 20 21 21 21 19 16 13 9 17 6 7 12 4 3 7 12 26 27 26 24 21 17 14 16 16 19 22 21 21 21 20 21 22
Wind_Direction
141 131 112 114 110 111 111 113 111 115 118 121 124 135 138 142 147 144 140 142 147 150 146 136 127 117 107 88 96 97 100 102 91 83 70 69 71 81 83 75 68 49 42
124 121 110 112 114 114 116 121 127 134 136 136 139 143 145 150 155 156 154 148 147 144 142 139 135 135 137 132 114 94 84 86 86 72 56 59 74 80 86 90 96 59 61
117 109 108 113 118 117 118 131 142 145 147 147 147 147 147 150 157 158 154 154 154 153 149 148 148 146 146 151 162 185 205 338 106 71 62 56 78 82 95 97 97 82 77
116 109 105 119 120 122 130 142 147 149 152 150 150 149 153 158 156 158 165 168 164 164 168 169 169 173 169 164 168 187 205 223 199 140 157 148 17 102 93 92 91 92 94
117 112 111 131 129 130 138 147 151 152 151 151 151 153 161 166 171 174 174 173 172 176 179 178 176 172 169 170 158 158 166 184 195 180 207 192 188 75 110 91 88 91 109
117 122 138 143 134 135 143 152 154 155 154 157 160 165 172 176 180 180 178 181 184 179 183 177 177 170 168 159 132 155 150 168 185 173 194 106 185 188 126 88 92 93 118
124 135 149 152 144 147 147 154 157 157 160 164 170 173 176 179 180 182 185 189 192 187 189 185 173 156 148 145 145 159 165 133 167 154 173 178 134 139 146 110 83 121 118
132 140 153 158 147 151 157 156 162 163 167 171 175 177 177 178 179 182 185 187 190 189 185 183 186 157 150 146 129 140 146 145 153 137 171 137 92 143 159 141 112 108 105
141 146 152 156 156 153 157 165 170 173 175 175 176 175 175 178 181 183 188 190 188 181 180 181 179 172 163 156 153 153 156 131 136 151 169 145 79 101 161 149 128 134 130
148 153 156 160 159 161 162 171 174 178 181 179 178 179 180 182 184 190 199 186 184 182 184 181 180 175 170 164 175 161 156 146 151 165 153 148 173 186 170 142 131 130 126
153 156 162 165 163 164 175 182 185 189 189 187 185 186 187 185 190 194 194 200 201 197 189 184 179 179 184 187 185 171 160 128 137 159 169 156 116 160 156 157 150 160 217
152 156 163 169 169 176 182 190 194 195 193 193 192 191 188 190 194 198 199 202 197 195 191 182 168 179 176 170 185 131 116 139 146 133 133 142 152 183 166 170 139 104 174
158 162 169 172 176 180 186 191 197 195 193 197 194 190 193 196 191 194 191 173 165 175 177 182 165 146 144 157 169 142 131 129 121 132 151 149 154 169 164 189 154 127 157
160 167 174 175 177 183 192 195 197 192 196 193 194 193 188 192 195 203 186 180 175 172 180 168 151 143 155 137 126 125 93 84 77 75 71 91 92 177 190 151 143 173 55
163 170 177 176 177 183 187 197 199 198 196 200 200 194 192 193 193 200 191 194 186 181 164 159 141 116 135 125 119 100 101 113 90 66 61 56 159 206 212 236 227 219 353
169 172 172 176 178 182 181 190 196 204 206 210 212 203 194 200 196 196 195 202 195 188 181 158 134 118 135 121 131 108 140 155 118 108 95 76 58 67 33 21 5 341 333
168 173 171 170 176 179 178 192 198 206 217 208 208 207 200 199 204 199 205 197 200 199 159 143 144 125 167 135 143 109 70 74 76 45 46 43 35 29 25 20 23 11 7
166 166 171 171 171 175 180 184 193 200 204 207 211 205 193 192 203 204 204 195 173 179 153 133 128 117 126 190 205 233 128 80 78 44 48 49 42 33 28 22 17 8 358
174 167 169 173 174 173 177 187 193 201 197 204 213 208 199 203 207 210 205 199 170 164 136 127 106 94 232 264 258 256 254 241 90 61 53 43 33 27 22 15 2 355 350
178 173 167 171 176 176 180 181 183 181 195 199 194 208 210 210 204 195 191 184 173 168 132 108 95 111 225 258 266 273 260 189 86 56 40 37 32 28 21 10 2 359 358
175 175 171 163 166 157 160 166 165 168 169 189 208 235 193 212 208 193 187 177 165 145 96 73 73 203 268 210 269 283 230 85 78 45 41 37 33 27 20 12 7 4 5
181 175 171 172 156 155 146 142 142 149 157 154 166 214 139 185 184 151 178 193 157 144 102 60 52 246 272 267 277 273 70 55 55 44 37 32 28 26 21 15 14 12 9
180 176 169 165 158 150 142 122 108 90 118 130 129 140 318 303 251 189 188 186 173 142 148 110 82 277 286 281 211 76 63 44 357 37 31 27 28 25 22 20 20 17 12
178 165 162 155 151 141 133 132 153 161 170 170 155 177 277 287 268 214 198 182 171 157 142 80 66 288 260 290 273 47 48 45 41 39 27 27 25 26 23 24 25 20 12
151 146 143 145 144 135 139 152 167 191 199 199 198 208 230 259 167 278 248 181 121 72 90 126 95 263 288 285 284 351 26 33 40 36 25 23 24 26 25 27 29 24 16
333 105 134 145 152 147 150 159 169 183 195 206 209 214 217 206 196 177 240 96 78 15 146 105 47 290 308 314 323 12 22 28 29 28 24 22 20 26 31 29 32 25 15